Renton, WA
on Sunday, November 25, 2012

Sunday
Previous Day Next Day
Daily Summary
 ActualAverage (KSEA)Record (KSEA)
Temperature
Mean Temperature °F 43°F  
Max Temperature 48°F 49°F 59°F (1949)
Min Temperature 37°F 38°F 18°F (1985)
Degree Days
Heating Degree Days 22 22  
Month to date heating degree days 475  
Since 1 July heating degree days 1072  
Cooling Degree Days 0 0  
Month to date cooling degree days 0  
Year to date cooling degree days 189  
Moisture
Dew Point 38°F   
Average Humidity 86    
Maximum Humidity 97    
Minimum Humidity 68    
Precipitation
Precipitation 0.00 in 0.22 in 3.04 in (1998)
Month to date precipitation 5.47  
Year to date precipitation 31.04  
Snow
Snow 0.00 in in 0.50 in (1985)
Month to date snowfall  
Since 1 July snowfall  
Snow Depth in   
Wind
Wind Speed 3 mph   
Max Wind Speed 13 mph   
Max Gust Speed mph   
Visibility 6 miles   
Events Fog   

Key: T is trace of precipitation, MM is missing value
Source: NWS Daily Summary
Time(PST)TemperatureDew PointHumidity Pressure Visibility Wind DirectionWind SpeedGust SpeedPrecipitationEvents Conditions
12:13 AM 41.0°F 37.4°F 87% 30.28 in 2.5 miles South 3.5 mph - N/A   Overcast
12:20 AM 41.0°F 37.4°F 87% 30.28 in 4.0 miles Calm Calm - N/A   Overcast
12:53 AM 41.0°F 37.9°F 89% 30.29 in 7.0 miles Calm Calm - N/A   Overcast
1:53 AM 41.0°F 39.0°F 93% 30.30 in 6.0 miles Calm Calm - N/A   Overcast
2:53 AM 41.0°F 37.9°F 89% 30.31 in 5.0 miles Calm Calm - N/A   Overcast
3:03 AM 41.0°F 37.4°F 87% 30.29 in 1.8 miles Calm Calm - N/A   Overcast
3:16 AM 41.0°F 39.2°F 93% 30.30 in 0.5 miles Calm Calm - N/A Fog Fog
3:53 AM 41.0°F 39.0°F 93% 30.32 in 0.5 miles Calm Calm - N/A Fog Fog
4:53 AM 39.0°F 37.0°F 93% 30.32 in 0.2 miles Calm Calm - N/A Fog Fog
5:00 AM 39.2°F 37.4°F 93% 30.31 in - North - - N/A   Unknown
5:15 AM 39.2°F 37.4°F 93% 30.31 in 0.5 miles Calm Calm - N/A Fog Fog
5:36 AM 37.4°F 35.6°F 93% 30.31 in 0.2 miles Calm Calm - N/A Fog Fog
5:53 AM 39.0°F 37.0°F 93% 30.32 in 0.2 miles Calm Calm - N/A Fog Fog
6:53 AM 39.0°F 37.0°F 93% 30.33 in 0.2 miles Calm Calm - N/A Fog Fog
7:53 AM 37.9°F 37.0°F 97% 30.34 in 0.2 miles Calm Calm - N/A Fog Fog
8:53 AM 37.9°F 37.0°F 97% 30.36 in 0.5 miles Calm Calm - N/A Fog Fog
9:53 AM 41.0°F 39.0°F 93% 30.36 in 0.5 miles Calm Calm - N/A Fog Fog
10:09 AM 42.8°F 39.2°F 87% 30.35 in 2.0 miles North 3.5 mph - N/A   Overcast
10:53 AM 42.1°F 39.9°F 92% 30.36 in 2.0 miles North 6.9 mph - N/A   Overcast
11:53 AM 42.1°F 39.9°F 92% 30.35 in 2.5 miles NNW 9.2 mph - N/A   Overcast
12:08 PM 42.8°F 39.2°F 87% 30.33 in 8.0 miles North 5.8 mph - N/A   Mostly Cloudy
12:15 PM 42.8°F 39.2°F 87% 30.33 in 9.0 miles NNW 4.6 mph - N/A   Mostly Cloudy
12:22 PM 44.6°F 39.2°F 81% 30.33 in 10.0 miles NNW 5.8 mph - N/A   Scattered Clouds
12:53 PM 46.0°F 39.9°F 79% 30.34 in 10.0 miles NNW 6.9 mph - N/A   Clear
1:53 PM 48.0°F 39.9°F 74% 30.32 in 10.0 miles North 5.8 mph - N/A   Partly Cloudy
2:53 PM 48.0°F 39.9°F 74% 30.31 in 10.0 miles NNW 5.8 mph - N/A   Clear
3:53 PM 46.9°F 37.0°F 68% 30.31 in 10.0 miles North 4.6 mph - N/A   Clear
4:53 PM 46.0°F 37.9°F 73% 30.30 in 10.0 miles NNW 5.8 mph - N/A   Clear
5:53 PM 45.0°F 37.9°F 76% 30.29 in 10.0 miles Variable 5.8 mph - N/A   Clear
6:53 PM 44.1°F 39.0°F 82% 30.28 in 10.0 miles NNW 9.2 mph - N/A   Clear
7:53 PM 44.1°F 37.9°F 79% 30.27 in 10.0 miles NNW 8.1 mph - N/A   Clear
8:53 PM 43.0°F 37.0°F 80% 30.26 in 10.0 miles NNW 9.2 mph - N/A   Clear
9:53 PM 42.1°F 37.9°F 85% 30.25 in 10.0 miles NNW 11.5 mph - N/A   Clear
10:17 PM 42.8°F 37.4°F 81% 30.23 in 9.0 miles NNW 12.7 mph - N/A   Partly Cloudy
10:53 PM 42.1°F 37.0°F 82% 30.23 in 10.0 miles NW 12.7 mph - N/A   Scattered Clouds
11:53 PM 39.9°F 36.0°F 86% 30.23 in 9.0 miles NW 12.7 mph - N/A   Partly Cloudy
Moon Phase
Nov. 25 Nov. 28 Dec. 06 Dec. 13 Dec. 20
Sunrise:07:28 AM (PST) Moon Rise:02:49 PM (PST)
Sunset:04:23 PM (PST) Moon Set:04:40 AM (PST)

Copyright © 2014 The Weather Underground, Inc.